Time,TemperatureF,DewpointF,PressureIn,WindDirection,WindDirectionDegrees,WindSpeedMPH,WindSpeedGustMPH,Humidity,HourlyPrecipIn,Conditions,Clouds,dailyrainin,SoftwareType,DateUTC
2013-08-07 00:01:00,69.8,63.3,29.86,SE,130,0.0,0.0,80,0.00,RA,,0.00,WeatherDisplay:10.37,2013-08-07 04:01:00,
2013-08-07 00:06:00,69.8,63.3,29.86,SE,130,0.0,0.0,80,0.00,RA,,0.00,WeatherDisplay:10.37,2013-08-07 04:06:00,
2013-08-07 00:11:00,69.8,63.7,29.86,SE,130,0.0,0.0,81,0.00,BKN,,0.00,WeatherDisplay:10.37,2013-08-07 04:11:00,
2013-08-07 00:16:00,69.8,63.7,29.85,SE,130,0.0,0.0,81,0.00,BKN,,0.00,WeatherDisplay:10.37,2013-08-07 04:16:00,
2013-08-07 00:21:00,69.8,63.7,29.85,SE,130,0.0,0.0,81,0.00,BKN,,0.00,WeatherDisplay:10.37,2013-08-07 04:21:00,
2013-08-07 00:26:00,69.6,63.5,29.85,SE,130,0.0,0.0,81,0.00,BKN,,0.00,WeatherDisplay:10.37,2013-08-07 04:26:00,
2013-08-07 00:31:00,69.6,63.5,29.85,SE,130,0.0,0.0,81,0.00,BKN,,0.00,WeatherDisplay:10.37,2013-08-07 04:31:00,
2013-08-07 00:36:00,69.6,63.5,29.85,SE,130,0.0,0.0,81,0.00,BKN,,0.00,WeatherDisplay:10.37,2013-08-07 04:36:00,
2013-08-07 00:41:00,69.6,63.5,29.85,SE,130,0.0,0.0,81,0.00,OVC,,0.00,WeatherDisplay:10.37,2013-08-07 04:41:00,
2013-08-07 00:46:00,69.6,63.5,29.85,SE,130,0.0,0.0,81,0.00,OVC,,0.00,WeatherDisplay:10.37,2013-08-07 04:46:00,
2013-08-07 00:51:00,69.6,63.5,29.85,SE,130,0.0,0.0,81,0.00,OVC,,0.00,WeatherDisplay:10.37,2013-08-07 04:51:00,
2013-08-07 00:56:00,69.6,63.9,29.85,SE,130,0.0,0.0,82,0.00,OVC,,0.00,WeatherDisplay:10.37,2013-08-07 04:56:00,
2013-08-07 01:01:00,69.6,63.9,29.85,SE,130,0.0,0.0,82,0.00,OVC,,0.00,WeatherDisplay:10.37,2013-08-07 05:01:00,
2013-08-07 01:06:00,69.6,63.9,29.85,SE,130,0.0,0.0,82,0.00,OVC,,0.00,WeatherDisplay:10.37,2013-08-07 05:06:00,
2013-08-07 01:11:00,69.6,63.9,29.86,SE,130,0.0,0.0,82,0.00,OVC,,0.00,WeatherDisplay:10.37,2013-08-07 05:11:00,
2013-08-07 01:16:00,69.6,63.9,29.85,SE,130,0.0,0.0,82,0.00,OVC,,0.00,WeatherDisplay:10.37,2013-08-07 05:16:00,
2013-08-07 01:21:00,69.6,63.9,29.86,SE,130,0.0,0.0,82,0.00,OVC,,0.00,WeatherDisplay:10.37,2013-08-07 05:21:00,
2013-08-07 01:26:00,69.6,63.9,29.85,SE,130,0.0,0.0,82,0.00,OVC,,0.00,WeatherDisplay:10.37,2013-08-07 05:26:00,
2013-08-07 01:31:00,69.6,63.9,29.85,SE,130,0.0,0.0,82,0.00,OVC,,0.00,WeatherDisplay:10.37,2013-08-07 05:31:00,
2013-08-07 01:36:00,69.6,63.9,29.85,SE,130,0.0,0.0,82,0.00,OVC,,0.00,WeatherDisplay:10.37,2013-08-07 05:36:00,
2013-08-07 01:41:00,69.6,63.9,29.85,SE,130,0.0,0.0,82,0.00,OVC,,0.00,WeatherDisplay:10.37,2013-08-07 05:41:00,
2013-08-07 01:46:00,69.6,63.9,29.85,SE,130,0.0,0.0,82,0.00,OVC,,0.00,WeatherDisplay:10.37,2013-08-07 05:46:00,
2013-08-07 01:51:00,69.4,63.7,29.85,SE,130,0.0,0.0,82,0.00,OVC,,0.00,WeatherDisplay:10.37,2013-08-07 05:51:00,
2013-08-07 01:56:00,69.4,64.0,29.85,SE,130,0.0,0.0,83,0.00,OVC,,0.00,WeatherDisplay:10.37,2013-08-07 05:56:00,
2013-08-07 02:01:00,69.4,64.0,29.85,SE,130,0.0,0.0,83,0.00,OVC,,0.00,WeatherDisplay:10.37,2013-08-07 06:01:00,
2013-08-07 02:06:00,69.4,64.0,29.85,SE,130,0.0,0.0,83,0.00,OVC,,0.00,WeatherDisplay:10.37,2013-08-07 06:06:00,
2013-08-07 02:11:00,69.4,64.0,29.85,SE,130,0.0,0.0,83,0.00,OVC,,0.00,WeatherDisplay:10.37,2013-08-07 06:11:00,
2013-08-07 02:16:00,69.6,64.2,29.85,SE,130,0.0,0.0,83,0.00,OVC,,0.00,WeatherDisplay:10.37,2013-08-07 06:16:00,
2013-08-07 02:21:00,69.6,64.2,29.85,SE,130,0.0,0.0,83,0.00,-RA,,0.00,WeatherDisplay:10.37,2013-08-07 06:21:00,
2013-08-07 02:26:00,69.6,64.2,29.85,SE,130,0.0,0.0,83,0.00,-RA,,0.00,WeatherDisplay:10.37,2013-08-07 06:26:00,
2013-08-07 02:31:00,69.6,64.2,29.85,SE,130,0.0,0.0,83,0.00,-RA,,0.00,WeatherDisplay:10.37,2013-08-07 06:31:00,
2013-08-07 02:36:00,69.6,64.2,29.85,SE,130,0.0,0.0,83,0.00,-RA,,0.00,WeatherDisplay:10.37,2013-08-07 06:36:00,
2013-08-07 02:41:00,69.6,64.2,29.85,SE,130,0.0,0.0,83,0.00,OVC,,0.00,WeatherDisplay:10.37,2013-08-07 06:41:00,
2013-08-07 02:46:00,69.8,64.4,29.85,SE,130,0.0,0.0,83,0.00,OVC,,0.00,WeatherDisplay:10.37,2013-08-07 06:46:00,
2013-08-07 02:51:00,69.6,64.2,29.85,SE,130,0.0,0.0,83,0.00,OVC,,0.00,WeatherDisplay:10.37,2013-08-07 06:51:00,
2013-08-07 02:56:00,69.8,64.1,29.85,SE,130,0.0,0.0,82,0.00,OVC,,0.00,WeatherDisplay:10.37,2013-08-07 06:56:00,
2013-08-07 03:01:00,69.6,63.9,29.85,SE,130,0.0,0.0,82,0.00,OVC,,0.00,WeatherDisplay:10.37,2013-08-07 07:01:00,
2013-08-07 03:06:00,69.6,63.9,29.85,SE,130,0.0,0.0,82,0.00,OVC,,0.00,WeatherDisplay:10.37,2013-08-07 07:06:00,
2013-08-07 03:11:00,69.6,63.9,29.85,SE,130,0.0,0.0,82,0.00,BKN,,0.00,WeatherDisplay:10.37,2013-08-07 07:11:00,
2013-08-07 03:16:00,69.6,64.2,29.85,SE,130,0.0,0.0,83,0.00,BKN,,0.00,WeatherDisplay:10.37,2013-08-07 07:16:00,
2013-08-07 03:21:00,69.6,64.2,29.84,SE,130,0.0,0.0,83,0.00,BKN,,0.00,WeatherDisplay:10.37,2013-08-07 07:21:00,
2013-08-07 03:26:00,69.4,64.0,29.85,SE,130,0.0,0.0,83,0.00,BKN,,0.00,WeatherDisplay:10.37,2013-08-07 07:26:00,
2013-08-07 03:31:00,69.3,63.9,29.85,SE,130,0.0,0.0,83,0.00,OVC,,0.00,WeatherDisplay:10.37,2013-08-07 07:31:00,
2013-08-07 03:36:00,69.1,63.7,29.85,SE,130,0.0,0.0,83,0.00,OVC,,0.00,WeatherDisplay:10.37,2013-08-07 07:36:00,
2013-08-07 03:41:00,69.1,63.7,29.85,SE,130,0.0,0.0,83,0.00,OVC,,0.00,WeatherDisplay:10.37,2013-08-07 07:41:00,
2013-08-07 03:46:00,69.1,64.0,29.85,SE,130,0.0,0.0,84,0.00,OVC,,0.00,WeatherDisplay:10.37,2013-08-07 07:46:00,
2013-08-07 03:51:00,68.7,63.7,29.85,SE,130,0.0,0.0,84,0.00,OVC,,0.00,WeatherDisplay:10.37,2013-08-07 07:51:00,
2013-08-07 03:56:00,68.7,63.7,29.85,SE,130,0.0,0.0,84,0.00,OVC,,0.00,WeatherDisplay:10.37,2013-08-07 07:56:00,
2013-08-07 04:01:00,68.7,63.7,29.86,SE,130,0.0,0.0,84,0.00,OVC,,0.00,WeatherDisplay:10.37,2013-08-07 08:01:00,
2013-08-07 04:06:00,68.7,63.7,29.86,SE,130,0.0,0.0,84,0.00,OVC,,0.00,WeatherDisplay:10.37,2013-08-07 08:06:00,
2013-08-07 04:11:00,68.7,63.7,29.86,SE,130,0.0,0.0,84,0.00,OVC,,0.00,WeatherDisplay:10.37,2013-08-07 08:11:00,
2013-08-07 04:16:00,68.7,63.7,29.86,SE,130,0.0,0.0,84,0.00,OVC,,0.00,WeatherDisplay:10.37,2013-08-07 08:16:00,
2013-08-07 04:21:00,68.7,63.7,29.86,SE,130,0.0,0.0,84,0.00,OVC,,0.00,WeatherDisplay:10.37,2013-08-07 08:21:00,
2013-08-07 04:26:00,68.7,63.7,29.86,SE,130,0.0,0.0,84,0.00,OVC,,0.00,WeatherDisplay:10.37,2013-08-07 08:26:00,
2013-08-07 04:31:00,68.7,63.7,29.86,SE,130,0.0,0.0,84,0.00,OVC,,0.00,WeatherDisplay:10.37,2013-08-07 08:31:00,
2013-08-07 04:36:00,68.7,63.7,29.86,SE,130,0.0,0.0,84,0.00,OVC,,0.00,WeatherDisplay:10.37,2013-08-07 08:36:00,
2013-08-07 04:41:00,68.9,63.9,29.86,SE,130,0.0,0.0,84,0.00,OVC,,0.00,WeatherDisplay:10.37,2013-08-07 08:41:00,
2013-08-07 04:46:00,68.7,63.7,29.86,SE,130,0.0,0.0,84,0.00,OVC,,0.00,WeatherDisplay:10.37,2013-08-07 08:46:00,
2013-08-07 04:51:00,68.7,64.0,29.86,SE,130,0.0,0.0,85,0.00,OVC,,0.00,WeatherDisplay:10.37,2013-08-07 08:51:00,
2013-08-07 04:56:00,68.7,64.0,29.86,SE,130,0.0,0.0,85,0.00,OVC,,0.00,WeatherDisplay:10.37,2013-08-07 08:56:00,
2013-08-07 05:01:00,68.5,63.5,29.85,SE,130,0.0,0.0,84,0.00,OVC,,0.00,WeatherDisplay:10.37,2013-08-07 09:01:00,
2013-08-07 05:06:00,68.5,63.5,29.85,SE,130,0.0,0.0,84,0.00,OVC,,0.00,WeatherDisplay:10.37,2013-08-07 09:06:00,
2013-08-07 05:11:00,68.2,63.5,29.85,SE,130,0.0,0.0,85,0.00,OVC,,0.00,WeatherDisplay:10.37,2013-08-07 09:11:00,
2013-08-07 05:16:00,68.2,63.5,29.85,SE,130,0.0,0.0,85,0.00,OVC,,0.00,WeatherDisplay:10.37,2013-08-07 09:16:00,
2013-08-07 05:21:00,68.0,63.3,29.85,SE,130,0.0,0.0,85,0.00,OVC,,0.00,WeatherDisplay:10.37,2013-08-07 09:21:00,
2013-08-07 05:26:00,67.8,63.1,29.85,SE,130,0.0,0.0,85,0.00,OVC,,0.00,WeatherDisplay:10.37,2013-08-07 09:26:00,
2013-08-07 05:31:00,67.8,63.1,29.85,SE,130,0.0,0.0,85,0.00,-RA,,0.00,WeatherDisplay:10.37,2013-08-07 09:31:00,
2013-08-07 05:36:00,67.8,63.1,29.85,SE,130,0.0,0.0,85,0.00,-RA,,0.00,WeatherDisplay:10.37,2013-08-07 09:36:00,
2013-08-07 05:41:00,67.6,63.0,29.85,SE,130,0.0,0.0,85,0.00,BKN,,0.00,WeatherDisplay:10.37,2013-08-07 09:41:00,
2013-08-07 05:46:00,67.6,63.0,29.84,SE,130,0.0,0.0,85,0.00,BKN,,0.00,WeatherDisplay:10.37,2013-08-07 09:46:00,
2013-08-07 05:51:00,67.3,62.6,29.85,SE,130,0.0,0.0,85,0.00,BKN,,0.00,WeatherDisplay:10.37,2013-08-07 09:51:00,
2013-08-07 05:56:00,67.1,62.8,29.85,SE,130,0.0,0.0,86,0.00,BKN,,0.00,WeatherDisplay:10.37,2013-08-07 09:56:00,
2013-08-07 06:01:00,67.3,62.9,29.85,SE,130,0.0,0.0,86,0.00,BKN,,0.00,WeatherDisplay:10.37,2013-08-07 10:01:00,
2013-08-07 06:06:00,67.3,62.9,29.85,SE,130,0.0,0.0,86,0.00,BKN,,0.00,WeatherDisplay:10.37,2013-08-07 10:06:00,
2013-08-07 06:11:00,67.5,63.1,29.86,SE,130,0.0,0.0,86,0.00,BKN,,0.00,WeatherDisplay:10.37,2013-08-07 10:11:00,
2013-08-07 06:16:00,67.6,63.3,29.85,SE,130,0.0,0.0,86,0.00,BKN,,0.00,WeatherDisplay:10.37,2013-08-07 10:16:00,
2013-08-07 06:21:00,67.6,63.3,29.85,SE,130,0.0,0.0,86,0.00,SCT,,0.00,WeatherDisplay:10.37,2013-08-07 10:21:00,
2013-08-07 06:26:00,67.8,63.5,29.86,SE,130,0.0,0.0,86,0.00,SCT,,0.00,WeatherDisplay:10.37,2013-08-07 10:26:00,
2013-08-07 06:31:00,67.8,63.5,29.85,SE,130,0.0,0.0,86,0.00,SCT,,0.00,WeatherDisplay:10.37,2013-08-07 10:31:00,
2013-08-07 06:36:00,68.0,63.7,29.85,SE,130,0.0,0.0,86,0.00,SCT,,0.00,WeatherDisplay:10.37,2013-08-07 10:36:00,
2013-08-07 06:41:00,68.2,63.8,29.86,SE,130,0.0,0.0,86,0.00,OVC,,0.00,WeatherDisplay:10.37,2013-08-07 10:41:00,
2013-08-07 06:46:00,68.2,63.8,29.85,SE,130,0.0,0.0,86,0.00,OVC,,0.00,WeatherDisplay:10.37,2013-08-07 10:46:00,
2013-08-07 06:51:00,68.2,63.8,29.85,SE,130,0.0,0.0,86,0.00,OVC,,0.00,WeatherDisplay:10.37,2013-08-07 10:51:00,
2013-08-07 06:56:00,68.2,63.8,29.85,SE,130,0.0,0.0,86,0.00,OVC,,0.00,WeatherDisplay:10.37,2013-08-07 10:56:00,
2013-08-07 07:01:00,68.4,64.0,29.85,SE,130,0.0,0.0,86,0.00,OVC,,0.00,WeatherDisplay:10.37,2013-08-07 11:01:00,
2013-08-07 07:06:00,68.4,64.0,29.85,SE,130,0.0,0.0,86,0.00,OVC,,0.00,WeatherDisplay:10.37,2013-08-07 11:06:00,
2013-08-07 07:11:00,68.5,64.2,29.85,SE,130,0.0,0.0,86,0.00,OVC,,0.00,WeatherDisplay:10.37,2013-08-07 11:11:00,
2013-08-07 07:16:00,68.5,64.2,29.85,SE,130,0.0,0.0,86,0.00,OVC,,0.00,WeatherDisplay:10.37,2013-08-07 11:16:00,
2013-08-07 07:21:00,68.7,64.4,29.85,SE,130,0.0,0.0,86,0.00,OVC,,0.00,WeatherDisplay:10.37,2013-08-07 11:21:00,
2013-08-07 07:26:00,69.1,64.7,29.85,SE,130,0.0,0.0,86,0.00,OVC,,0.00,WeatherDisplay:10.37,2013-08-07 11:26:00,
2013-08-07 07:31:00,69.1,64.7,29.85,SE,130,0.0,0.0,86,0.00,OVC,,0.00,WeatherDisplay:10.37,2013-08-07 11:31:00,
2013-08-07 07:36:00,69.4,65.1,29.85,SE,130,0.0,0.0,86,0.00,OVC,,0.00,WeatherDisplay:10.37,2013-08-07 11:36:00,
2013-08-07 07:41:00,69.4,64.7,29.85,SE,130,0.0,0.0,85,0.00,OVC,,0.00,WeatherDisplay:10.37,2013-08-07 11:41:00,
2013-08-07 07:46:00,69.6,64.9,29.86,SE,130,0.0,0.0,85,0.00,OVC,,0.00,WeatherDisplay:10.37,2013-08-07 11:46:00,
2013-08-07 07:51:00,69.6,64.9,29.86,SE,130,0.0,0.0,85,0.00,OVC,,0.00,WeatherDisplay:10.37,2013-08-07 11:51:00,
2013-08-07 07:56:00,69.4,64.7,29.86,SE,130,0.0,0.0,85,0.00,OVC,,0.00,WeatherDisplay:10.37,2013-08-07 11:56:00,
2013-08-07 08:01:00,69.4,64.7,29.86,SE,130,0.0,0.0,85,0.00,OVC,,0.00,WeatherDisplay:10.37,2013-08-07 12:01:00,
2013-08-07 08:06:00,69.4,64.7,29.87,SE,130,0.0,0.0,85,0.00,OVC,,0.00,WeatherDisplay:10.37,2013-08-07 12:06:00,
2013-08-07 08:11:00,69.4,64.7,29.87,SSW,200,0.0,3.5,85,0.00,OVC,,0.00,WeatherDisplay:10.37,2013-08-07 12:11:00,
2013-08-07 08:16:00,69.4,65.1,29.86,SSW,200,3.5,3.5,86,0.00,OVC,,0.00,WeatherDisplay:10.37,2013-08-07 12:16:00,
2013-08-07 08:21:00,69.4,65.1,29.87,SSW,200,3.5,3.5,86,0.00,OVC,,0.00,WeatherDisplay:10.37,2013-08-07 12:21:00,
2013-08-07 08:26:00,69.4,65.1,29.87,SSW,200,3.5,3.5,86,0.00,OVC,,0.00,WeatherDisplay:10.37,2013-08-07 12:26:00,
2013-08-07 08:31:00,69.4,65.1,29.87,SSW,210,3.5,3.5,86,0.00,OVC,,0.00,WeatherDisplay:10.37,2013-08-07 12:31:00,
2013-08-07 08:36:00,69.4,65.1,29.87,SSW,210,3.5,3.5,86,0.00,OVC,,0.00,WeatherDisplay:10.37,2013-08-07 12:36:00,
2013-08-07 08:41:00,69.6,65.2,29.87,SSW,210,3.5,3.5,86,0.00,OVC,,0.00,WeatherDisplay:10.37,2013-08-07 12:41:00,
2013-08-07 08:46:00,69.6,64.9,29.87,SSW,210,3.5,3.5,85,0.00,OVC,,0.00,WeatherDisplay:10.37,2013-08-07 12:46:00,
2013-08-07 08:51:00,70.0,65.3,29.87,SSW,210,3.5,0.0,85,0.00,OVC,,0.00,WeatherDisplay:10.37,2013-08-07 12:51:00,
2013-08-07 08:56:00,70.0,65.3,29.86,SSW,210,0.0,0.0,85,0.00,OVC,,0.00,WeatherDisplay:10.37,2013-08-07 12:56:00,
2013-08-07 09:01:00,70.2,65.4,29.87,SSW,210,0.0,0.0,85,0.00,OVC,,0.00,WeatherDisplay:10.37,2013-08-07 13:01:00,
2013-08-07 09:06:00,70.3,65.6,29.87,SSW,210,0.0,0.0,85,0.00,OVC,,0.00,WeatherDisplay:10.37,2013-08-07 13:06:00,
2013-08-07 09:11:00,70.3,65.3,29.87,South,190,3.5,3.5,84,0.00,OVC,,0.00,WeatherDisplay:10.37,2013-08-07 13:11:00,
2013-08-07 09:16:00,70.5,65.4,29.87,South,190,3.5,3.5,84,0.00,OVC,,0.00,WeatherDisplay:10.37,2013-08-07 13:16:00,
2013-08-07 09:21:00,70.5,65.4,29.87,South,190,3.5,3.5,84,0.00,OVC,,0.00,WeatherDisplay:10.37,2013-08-07 13:21:00,
2013-08-07 09:26:00,70.7,65.6,29.87,South,190,3.5,3.5,84,0.00,OVC,,0.00,WeatherDisplay:10.37,2013-08-07 13:26:00,
2013-08-07 09:31:00,70.9,65.8,29.87,South,190,3.5,4.6,84,0.00,OVC,,0.00,WeatherDisplay:10.37,2013-08-07 13:31:00,
2013-08-07 09:36:00,70.9,65.5,29.87,South,190,4.6,4.6,83,0.00,OVC,,0.00,WeatherDisplay:10.37,2013-08-07 13:36:00,
2013-08-07 09:41:00,70.9,65.5,29.88,South,190,4.6,4.6,83,0.00,OVC,,0.00,WeatherDisplay:10.37,2013-08-07 13:41:00,
2013-08-07 09:46:00,71.2,65.8,29.87,South,190,4.6,4.6,83,0.00,OVC,,0.00,WeatherDisplay:10.37,2013-08-07 13:46:00,
2013-08-07 09:51:00,71.2,65.8,29.87,South,190,4.6,4.6,83,0.00,OVC,,0.00,WeatherDisplay:10.37,2013-08-07 13:51:00,
2013-08-07 09:52:00,71.2,65.8,29.87,South,190,4.6,4.6,83,0.00,OVC,,0.00,WeatherDisplay:10.37,2013-08-07 13:52:00,
2013-08-07 09:57:00,71.2,65.8,29.87,South,190,4.6,4.6,83,0.00,OVC,,0.00,WeatherDisplay:10.37,2013-08-07 13:57:00,
2013-08-07 10:02:00,71.4,66.0,29.87,South,190,4.6,4.6,83,0.00,OVC,,0.00,WeatherDisplay:10.37,2013-08-07 14:02:00,
2013-08-07 10:07:00,71.8,66.3,29.86,South,190,4.6,4.6,83,0.00,OVC,,0.00,WeatherDisplay:10.37,2013-08-07 14:07:00,
2013-08-07 10:12:00,71.8,66.0,29.86,South,170,4.6,4.6,82,0.00,OVC,,0.00,WeatherDisplay:10.37,2013-08-07 14:12:00,
2013-08-07 10:17:00,71.8,66.0,29.86,South,170,4.6,4.6,82,0.00,OVC,,0.00,WeatherDisplay:10.37,2013-08-07 14:17:00,
2013-08-07 10:22:00,71.8,66.0,29.86,South,170,4.6,4.6,82,0.00,OVC,,0.00,WeatherDisplay:10.37,2013-08-07 14:22:00,
2013-08-07 10:27:00,72.0,66.2,29.87,South,170,4.6,4.6,82,0.00,OVC,,0.00,WeatherDisplay:10.37,2013-08-07 14:27:00,
2013-08-07 10:32:00,72.0,65.8,29.87,South,170,8.1,8.1,81,0.00,OVC,,0.00,WeatherDisplay:10.37,2013-08-07 14:32:00,
2013-08-07 10:37:00,72.1,66.0,29.87,South,170,8.1,8.1,81,0.00,OVC,,0.00,WeatherDisplay:10.37,2013-08-07 14:37:00,
2013-08-07 10:42:00,72.3,66.2,29.87,South,170,8.1,8.1,81,0.00,OVC,,0.00,WeatherDisplay:10.37,2013-08-07 14:42:00,
2013-08-07 10:47:00,72.3,66.2,29.86,South,170,4.6,4.6,81,0.00,OVC,,0.00,WeatherDisplay:10.37,2013-08-07 14:47:00,
2013-08-07 10:52:00,72.7,66.5,29.87,South,170,4.6,4.6,81,0.00,OVC,,0.00,WeatherDisplay:10.37,2013-08-07 14:52:00,
2013-08-07 10:57:00,72.7,66.2,29.86,South,170,4.6,4.6,80,0.00,OVC,,0.00,WeatherDisplay:10.37,2013-08-07 14:57:00,
2013-08-07 11:02:00,73.0,66.5,29.86,South,170,4.6,4.6,80,0.00,OVC,,0.00,WeatherDisplay:10.37,2013-08-07 15:02:00,
2013-08-07 11:07:00,73.2,66.7,29.86,South,170,4.6,4.6,80,0.00,OVC,,0.00,WeatherDisplay:10.37,2013-08-07 15:07:00,
2013-08-07 11:12:00,73.6,67.0,29.86,South,170,4.6,4.6,80,0.00,OVC,,0.00,WeatherDisplay:10.37,2013-08-07 15:12:00,
2013-08-07 11:17:00,73.6,67.0,29.87,South,170,4.6,4.6,80,0.00,OVC,,0.00,WeatherDisplay:10.37,2013-08-07 15:17:00,
2013-08-07 11:22:00,73.4,66.5,29.87,South,170,5.8,5.8,79,0.00,OVC,,0.00,WeatherDisplay:10.37,2013-08-07 15:22:00,
2013-08-07 11:27:00,73.6,66.7,29.87,South,170,5.8,5.8,79,0.00,OVC,,0.00,WeatherDisplay:10.37,2013-08-07 15:27:00,
2013-08-07 11:32:00,73.8,66.8,29.87,South,170,5.8,5.8,79,0.00,OVC,,0.00,WeatherDisplay:10.37,2013-08-07 15:32:00,
2013-08-07 11:37:00,73.9,67.0,29.88,South,170,5.8,5.8,79,0.00,OVC,,0.00,WeatherDisplay:10.37,2013-08-07 15:37:00,
2013-08-07 11:42:00,73.8,66.8,29.88,SSE,160,8.1,8.1,79,0.00,OVC,,0.00,WeatherDisplay:10.37,2013-08-07 15:42:00,
2013-08-07 11:47:00,73.4,66.5,29.88,SSE,160,8.1,8.1,79,0.00,OVC,,0.00,WeatherDisplay:10.37,2013-08-07 15:47:00,
2013-08-07 11:52:00,73.2,66.3,29.88,SSE,160,8.1,8.1,79,0.00,OVC,,0.00,WeatherDisplay:10.37,2013-08-07 15:52:00,
2013-08-07 11:57:00,73.2,66.7,29.88,SSE,160,8.1,8.1,80,0.00,OVC,,0.00,WeatherDisplay:10.37,2013-08-07 15:57:00,
2013-08-07 12:02:00,73.8,66.8,29.88,SSE,160,8.1,8.1,79,0.00,OVC,,0.00,WeatherDisplay:10.37,2013-08-07 16:02:00,
2013-08-07 12:07:00,74.1,66.8,29.88,SSE,160,5.8,5.8,78,0.00,OVC,,0.00,WeatherDisplay:10.37,2013-08-07 16:07:00,
2013-08-07 12:12:00,74.5,67.2,29.88,SSE,160,5.8,5.8,78,0.00,OVC,,0.00,WeatherDisplay:10.37,2013-08-07 16:12:00,
2013-08-07 12:17:00,74.8,67.1,29.87,SSE,160,5.8,5.8,77,0.00,OVC,,0.00,WeatherDisplay:10.37,2013-08-07 16:17:00,
2013-08-07 12:22:00,75.0,66.9,29.87,South,170,5.8,5.8,76,0.00,OVC,,0.00,WeatherDisplay:10.37,2013-08-07 16:22:00,
2013-08-07 12:27:00,75.7,67.6,29.87,South,170,3.5,3.5,76,0.00,OVC,,0.00,WeatherDisplay:10.37,2013-08-07 16:27:00,
2013-08-07 12:32:00,75.9,67.4,29.87,South,170,3.5,3.5,75,0.00,OVC,,0.00,WeatherDisplay:10.37,2013-08-07 16:32:00,
2013-08-07 12:37:00,76.1,67.6,29.87,South,170,3.5,3.5,75,0.00,OVC,,0.00,WeatherDisplay:10.37,2013-08-07 16:37:00,
2013-08-07 12:42:00,76.1,66.8,29.87,South,190,4.6,4.6,73,0.00,OVC,,0.00,WeatherDisplay:10.37,2013-08-07 16:42:00,
2013-08-07 12:47:00,76.3,67.0,29.88,South,190,4.6,4.6,73,0.00,OVC,,0.00,WeatherDisplay:10.37,2013-08-07 16:47:00,
2013-08-07 12:52:00,76.3,67.0,29.88,South,190,4.6,4.6,73,0.00,OVC,,0.00,WeatherDisplay:10.37,2013-08-07 16:52:00,
2013-08-07 12:57:00,76.1,66.8,29.87,South,190,4.6,4.6,73,0.00,OVC,,0.00,WeatherDisplay:10.37,2013-08-07 16:57:00,
2013-08-07 13:02:00,76.5,67.2,29.86,South,170,6.9,6.9,73,0.00,OVC,,0.00,WeatherDisplay:10.37,2013-08-07 17:02:00,
2013-08-07 13:07:00,77.5,67.8,29.86,South,170,6.9,6.9,72,0.00,OVC,,0.00,WeatherDisplay:10.37,2013-08-07 17:07:00,
2013-08-07 13:12:00,77.7,67.2,29.87,South,170,6.9,6.9,70,0.00,OVC,,0.00,WeatherDisplay:10.37,2013-08-07 17:12:00,
2013-08-07 13:17:00,77.9,67.3,29.87,South,170,6.9,6.9,70,0.00,OVC,,0.00,WeatherDisplay:10.37,2013-08-07 17:17:00,
2013-08-07 13:22:00,77.9,67.3,29.87,South,170,6.9,6.9,70,0.00,OVC,,0.00,WeatherDisplay:10.37,2013-08-07 17:22:00,
2013-08-07 13:27:00,77.9,67.3,29.86,South,170,5.8,5.8,70,0.00,OVC,,0.00,WeatherDisplay:10.37,2013-08-07 17:27:00,
2013-08-07 13:32:00,78.1,67.5,29.86,South,170,5.8,5.8,70,0.00,OVC,,0.00,WeatherDisplay:10.37,2013-08-07 17:32:00,
2013-08-07 13:37:00,78.6,67.6,29.86,South,170,5.8,5.8,69,0.00,OVC,,0.00,WeatherDisplay:10.37,2013-08-07 17:37:00,
2013-08-07 13:42:00,78.6,67.6,29.85,SSE,160,5.8,5.8,69,0.00,OVC,,0.00,WeatherDisplay:10.37,2013-08-07 17:42:00,
2013-08-07 13:47:00,78.6,67.6,29.86,SSE,160,5.8,5.8,69,0.00,OVC,,0.00,WeatherDisplay:10.37,2013-08-07 17:47:00,
2013-08-07 13:52:00,78.6,67.6,29.86,SSE,160,5.8,5.8,69,0.00,OVC,,0.00,WeatherDisplay:10.37,2013-08-07 17:52:00,
2013-08-07 13:57:00,78.6,67.2,29.85,SSE,160,5.8,5.8,68,0.00,OVC,,0.00,WeatherDisplay:10.37,2013-08-07 17:57:00,
2013-08-07 14:02:00,78.6,67.2,29.85,South,180,5.8,5.8,68,0.00,OVC,,0.00,WeatherDisplay:10.37,2013-08-07 18:02:00,
2013-08-07 14:07:00,78.6,67.6,29.85,South,180,5.8,5.8,69,0.00,OVC,,0.00,WeatherDisplay:10.37,2013-08-07 18:07:00,
2013-08-07 14:12:00,78.6,68.0,29.85,South,180,5.8,5.8,70,0.00,OVC,,0.00,WeatherDisplay:10.37,2013-08-07 18:12:00,
2013-08-07 14:17:00,79.2,68.1,29.85,South,180,5.8,5.8,69,0.00,OVC,,0.00,WeatherDisplay:10.37,2013-08-07 18:17:00,
2013-08-07 14:22:00,79.0,67.9,29.85,South,180,8.1,8.1,69,0.00,OVC,,0.00,WeatherDisplay:10.37,2013-08-07 18:22:00,
2013-08-07 14:27:00,78.6,67.6,29.85,South,180,8.1,8.1,69,0.00,OVC,,0.00,WeatherDisplay:10.37,2013-08-07 18:27:00,
2013-08-07 14:32:00,79.7,68.6,29.85,South,180,8.1,8.1,69,0.00,OVC,,0.00,WeatherDisplay:10.37,2013-08-07 18:32:00,
2013-08-07 14:37:00,79.3,68.3,29.85,South,180,8.1,8.1,69,0.00,OVC,,0.00,WeatherDisplay:10.37,2013-08-07 18:37:00,
2013-08-07 14:42:00,79.5,68.0,29.85,South,180,8.1,8.1,68,0.00,OVC,,0.00,WeatherDisplay:10.37,2013-08-07 18:42:00,
2013-08-07 14:47:00,79.5,68.0,29.84,South,180,8.1,8.1,68,0.00,OVC,,0.00,WeatherDisplay:10.37,2013-08-07 18:47:00,
2013-08-07 14:52:00,79.7,68.2,29.84,South,190,18.4,18.4,68,0.00,OVC,,0.00,WeatherDisplay:10.37,2013-08-07 18:52:00,
2013-08-07 14:57:00,79.9,68.4,29.84,South,190,18.4,18.4,68,0.00,OVC,,0.00,WeatherDisplay:10.37,2013-08-07 18:57:00,
2013-08-07 15:02:00,79.7,67.8,29.84,South,190,18.4,18.4,67,0.00,OVC,,0.00,WeatherDisplay:10.37,2013-08-07 19:02:00,
2013-08-07 15:07:00,79.7,68.2,29.84,South,190,18.4,18.4,68,0.00,OVC,,0.00,WeatherDisplay:10.37,2013-08-07 19:07:00,
2013-08-07 15:12:00,79.5,67.6,29.84,South,190,18.4,18.4,67,0.00,OVC,,0.00,WeatherDisplay:10.37,2013-08-07 19:12:00,
2013-08-07 15:17:00,79.7,68.2,29.84,South,190,10.4,10.4,68,0.00,OVC,,0.00,WeatherDisplay:10.37,2013-08-07 19:17:00,
2013-08-07 15:22:00,79.2,67.7,29.84,South,190,10.4,10.4,68,0.00,OVC,,0.00,WeatherDisplay:10.37,2013-08-07 19:22:00,
2013-08-07 15:27:00,79.0,67.5,29.83,South,190,10.4,10.4,68,0.00,OVC,,0.00,WeatherDisplay:10.37,2013-08-07 19:27:00,
2013-08-07 15:32:00,79.2,68.1,29.83,SSW,200,18.4,18.4,69,0.00,OVC,,0.00,WeatherDisplay:10.37,2013-08-07 19:32:00,
2013-08-07 15:37:00,79.5,68.0,29.82,SSW,200,18.4,18.4,68,0.00,OVC,,0.00,WeatherDisplay:10.37,2013-08-07 19:37:00,
2013-08-07 15:42:00,80.1,68.1,29.82,SSW,200,18.4,18.4,67,0.00,OVC,,0.00,WeatherDisplay:10.37,2013-08-07 19:42:00,
2013-08-07 15:47:00,79.7,67.8,29.83,SSW,200,18.4,18.4,67,0.00,OVC,,0.00,WeatherDisplay:10.37,2013-08-07 19:47:00,
2013-08-07 15:52:00,79.5,68.0,29.83,South,170,18.4,18.4,68,0.00,OVC,,0.00,WeatherDisplay:10.37,2013-08-07 19:52:00,
2013-08-07 15:57:00,80.2,68.7,29.83,South,170,8.1,8.1,68,0.00,OVC,,0.00,WeatherDisplay:10.37,2013-08-07 19:57:00,
2013-08-07 16:02:00,80.1,68.1,29.83,SSW,200,18.4,18.4,67,0.00,BKN,,0.00,WeatherDisplay:10.37,2013-08-07 20:02:00,
2013-08-07 16:07:00,79.9,67.9,29.83,SSW,200,18.4,18.4,67,0.00,BKN,,0.00,WeatherDisplay:10.37,2013-08-07 20:07:00,
2013-08-07 16:12:00,79.5,68.0,29.83,SSW,200,18.4,18.4,68,0.00,BKN,,0.00,WeatherDisplay:10.37,2013-08-07 20:12:00,
2013-08-07 16:17:00,79.7,68.2,29.83,SSW,200,18.4,18.4,68,0.00,BKN,,0.00,WeatherDisplay:10.37,2013-08-07 20:17:00,
2013-08-07 16:22:00,79.3,67.9,29.82,South,170,18.4,18.4,68,0.00,SCT,,0.00,WeatherDisplay:10.37,2013-08-07 20:22:00,
2013-08-07 16:27:00,79.0,67.9,29.82,South,170,10.4,10.4,69,0.00,SCT,,0.00,WeatherDisplay:10.37,2013-08-07 20:27:00,
2013-08-07 16:32:00,79.0,67.9,29.82,South,170,10.4,10.4,69,0.00,SCT,,0.00,WeatherDisplay:10.37,2013-08-07 20:32:00,
2013-08-07 16:37:00,78.6,67.6,29.82,South,170,10.4,10.4,69,0.00,SCT,,0.00,WeatherDisplay:10.37,2013-08-07 20:37:00,
2013-08-07 16:42:00,79.0,67.9,29.82,South,190,10.4,10.4,69,0.00,BKN,,0.00,WeatherDisplay:10.37,2013-08-07 20:42:00,
2013-08-07 16:47:00,79.0,67.9,29.82,South,190,6.9,6.9,69,0.00,BKN,,0.00,WeatherDisplay:10.37,2013-08-07 20:47:00,
2013-08-07 16:52:00,78.8,68.2,29.82,South,190,6.9,6.9,70,0.00,BKN,,0.00,WeatherDisplay:10.37,2013-08-07 20:52:00,
2013-08-07 16:57:00,78.6,67.6,29.83,South,190,6.9,6.9,69,0.00,BKN,,0.00,WeatherDisplay:10.37,2013-08-07 20:57:00,
2013-08-07 17:02:00,78.6,67.6,29.83,SW,220,12.7,12.7,69,0.00,BKN,,0.00,WeatherDisplay:10.37,2013-08-07 21:02:00,
2013-08-07 17:07:00,78.6,67.6,29.84,SW,220,12.7,12.7,69,0.00,BKN,,0.00,WeatherDisplay:10.37,2013-08-07 21:07:00,
2013-08-07 17:12:00,78.8,67.8,29.84,SW,220,12.7,12.7,69,0.00,BKN,,0.00,WeatherDisplay:10.37,2013-08-07 21:12:00,
2013-08-07 17:17:00,79.0,67.9,29.84,SW,220,12.7,12.7,69,0.00,BKN,,0.00,WeatherDisplay:10.37,2013-08-07 21:17:00,
2013-08-07 17:22:00,79.0,67.9,29.83,SW,220,18.4,18.4,69,0.00,BKN,,0.00,WeatherDisplay:10.37,2013-08-07 21:22:00,
2013-08-07 17:27:00,78.6,67.6,29.84,SW,220,18.4,18.4,69,0.00,BKN,,0.00,WeatherDisplay:10.37,2013-08-07 21:27:00,
2013-08-07 17:32:00,78.6,67.6,29.84,SW,220,18.4,18.4,69,0.00,BKN,,0.00,WeatherDisplay:10.37,2013-08-07 21:32:00,
2013-08-07 17:37:00,78.6,67.6,29.83,SW,220,18.4,18.4,69,0.00,BKN,,0.00,WeatherDisplay:10.37,2013-08-07 21:37:00,
2013-08-07 17:42:00,78.6,67.6,29.84,SW,230,18.4,18.4,69,0.00,SCT,,0.00,WeatherDisplay:10.37,2013-08-07 21:42:00,
2013-08-07 17:47:00,78.6,67.6,29.84,SW,230,10.4,10.4,69,0.00,SCT,,0.00,WeatherDisplay:10.37,2013-08-07 21:47:00,
2013-08-07 17:52:00,78.4,67.4,29.83,SW,230,10.4,10.4,69,0.00,SCT,,0.00,WeatherDisplay:10.37,2013-08-07 21:52:00,
2013-08-07 17:57:00,78.4,67.8,29.83,SW,230,10.4,10.4,70,0.00,SCT,,0.00,WeatherDisplay:10.37,2013-08-07 21:57:00,
2013-08-07 18:02:00,78.3,67.7,29.83,SW,220,10.4,10.4,70,0.00,CLR,,0.00,WeatherDisplay:10.37,2013-08-07 22:02:00,
2013-08-07 18:07:00,78.1,67.5,29.83,SW,220,9.2,9.2,70,0.00,CLR,,0.00,WeatherDisplay:10.37,2013-08-07 22:07:00,
2013-08-07 18:12:00,78.1,67.5,29.83,SW,220,9.2,9.2,70,0.00,CLR,,0.00,WeatherDisplay:10.37,2013-08-07 22:12:00,
2013-08-07 18:17:00,78.1,67.5,29.83,SW,220,9.2,9.2,70,0.00,CLR,,0.00,WeatherDisplay:10.37,2013-08-07 22:17:00,
2013-08-07 18:22:00,78.1,67.5,29.83,SW,220,9.2,9.2,70,0.00,CLR,,0.00,WeatherDisplay:10.37,2013-08-07 22:22:00,
2013-08-07 18:27:00,77.9,67.3,29.83,SW,220,6.9,6.9,70,0.00,CLR,,0.00,WeatherDisplay:10.37,2013-08-07 22:27:00,
2013-08-07 18:32:00,77.7,67.2,29.83,SW,220,6.9,6.9,70,0.00,CLR,,0.00,WeatherDisplay:10.37,2013-08-07 22:32:00,
2013-08-07 18:37:00,77.5,67.0,29.83,SW,220,6.9,6.9,70,0.00,CLR,,0.00,WeatherDisplay:10.37,2013-08-07 22:37:00,
2013-08-07 18:42:00,77.4,67.2,29.83,SSW,200,9.2,9.2,71,0.00,BKN,,0.00,WeatherDisplay:10.37,2013-08-07 22:42:00,
2013-08-07 18:47:00,77.2,67.0,29.83,SSW,200,9.2,9.2,71,0.00,BKN,,0.00,WeatherDisplay:10.37,2013-08-07 22:47:00,
2013-08-07 18:52:00,77.2,67.0,29.82,SSW,200,9.2,9.2,71,0.00,BKN,,0.00,WeatherDisplay:10.37,2013-08-07 22:52:00,
2013-08-07 18:57:00,77.2,67.5,29.83,SSW,200,9.2,9.2,72,0.00,BKN,,0.00,WeatherDisplay:10.37,2013-08-07 22:57:00,
2013-08-07 19:02:00,77.2,67.5,29.83,SSW,200,9.2,9.2,72,0.00,BKN,,0.00,WeatherDisplay:10.37,2013-08-07 23:02:00,
2013-08-07 19:07:00,77.2,67.5,29.83,SSW,200,8.1,8.1,72,0.00,BKN,,0.00,WeatherDisplay:10.37,2013-08-07 23:07:00,
2013-08-07 19:12:00,77.0,67.3,29.84,SSW,200,8.1,8.1,72,0.00,BKN,,0.00,WeatherDisplay:10.37,2013-08-07 23:12:00,
2013-08-07 19:17:00,76.8,67.1,29.84,SSW,200,8.1,8.1,72,0.00,BKN,,0.00,WeatherDisplay:10.37,2013-08-07 23:17:00,
2013-08-07 19:22:00,76.8,67.1,29.84,South,170,8.1,8.1,72,0.00,OVC,,0.00,WeatherDisplay:10.37,2013-08-07 23:22:00,
2013-08-07 19:27:00,76.8,67.1,29.84,South,170,6.9,6.9,72,0.00,OVC,,0.00,WeatherDisplay:10.37,2013-08-07 23:27:00,
2013-08-07 19:32:00,76.8,67.5,29.84,South,170,6.9,6.9,73,0.00,OVC,,0.00,WeatherDisplay:10.37,2013-08-07 23:32:00,
2013-08-07 19:37:00,76.6,67.3,29.84,South,170,6.9,6.9,73,0.00,OVC,,0.00,WeatherDisplay:10.37,2013-08-07 23:37:00,
2013-08-07 19:42:00,76.6,67.3,29.84,South,170,6.9,6.9,73,0.00,OVC,,0.00,WeatherDisplay:10.37,2013-08-07 23:42:00,
2013-08-07 19:47:00,76.6,67.3,29.85,South,170,5.8,5.8,73,0.00,OVC,,0.00,WeatherDisplay:10.37,2013-08-07 23:47:00,
2013-08-07 19:52:00,76.6,67.3,29.84,South,170,5.8,5.8,73,0.00,OVC,,0.00,WeatherDisplay:10.37,2013-08-07 23:52:00,
2013-08-07 19:57:00,76.5,67.2,29.84,South,170,5.8,5.8,73,0.00,OVC,,0.00,WeatherDisplay:10.37,2013-08-07 23:57:00,
2013-08-07 19:58:00,76.5,67.2,29.84,South,170,5.8,5.8,73,0.00,OVC,,0.00,WeatherDisplay:10.37,2013-08-07 23:58:00,
2013-08-07 20:03:00,76.3,67.4,29.84,South,170,5.8,5.8,74,0.00,OVC,,0.00,WeatherDisplay:10.37,2013-08-08 00:03:00,
2013-08-07 20:08:00,76.3,67.4,29.84,South,170,5.8,5.8,74,0.00,OVC,,0.00,WeatherDisplay:10.37,2013-08-08 00:08:00,
2013-08-07 20:13:00,76.3,67.4,29.84,South,170,5.8,5.8,74,0.00,OVC,,0.00,WeatherDisplay:10.37,2013-08-08 00:13:00,
2013-08-07 20:18:00,76.1,67.6,29.84,South,170,5.8,5.8,75,0.00,OVC,,0.00,WeatherDisplay:10.37,2013-08-08 00:18:00,
2013-08-07 20:23:00,75.9,67.4,29.84,South,170,5.8,5.8,75,0.00,OVC,,0.00,WeatherDisplay:10.37,2013-08-08 00:23:00,
2013-08-07 20:28:00,75.7,67.6,29.84,South,170,5.8,5.8,76,0.00,OVC,,0.00,WeatherDisplay:10.37,2013-08-08 00:28:00,
2013-08-07 20:33:00,75.6,67.5,29.84,South,170,5.8,5.8,76,0.00,OVC,,0.00,WeatherDisplay:10.37,2013-08-08 00:33:00,
2013-08-07 20:38:00,75.4,67.3,29.84,South,170,5.8,5.8,76,0.00,OVC,,0.00,WeatherDisplay:10.37,2013-08-08 00:38:00,
2013-08-07 20:43:00,75.4,67.7,29.85,SSE,160,3.5,3.5,77,0.00,OVC,,0.00,WeatherDisplay:10.37,2013-08-08 00:43:00,
2013-08-07 20:48:00,75.0,67.3,29.85,SSE,160,3.5,3.5,77,0.00,OVC,,0.00,WeatherDisplay:10.37,2013-08-08 00:48:00,
2013-08-07 20:53:00,75.0,67.3,29.84,SSE,160,3.5,3.5,77,0.00,OVC,,0.00,WeatherDisplay:10.37,2013-08-08 00:53:00,
2013-08-07 20:58:00,75.0,67.7,29.84,SSE,160,3.5,3.5,78,0.00,OVC,,0.00,WeatherDisplay:10.37,2013-08-08 00:58:00,
2013-08-07 21:03:00,75.0,67.7,29.84,SSW,200,9.2,9.2,78,0.00,BKN,,0.00,WeatherDisplay:10.37,2013-08-08 01:03:00,
2013-08-07 21:08:00,74.8,67.5,29.85,SSW,200,9.2,9.2,78,0.00,BKN,,0.00,WeatherDisplay:10.37,2013-08-08 01:08:00,
2013-08-07 21:13:00,74.8,67.5,29.85,SSW,200,9.2,9.2,78,0.00,BKN,,0.00,WeatherDisplay:10.37,2013-08-08 01:13:00,
2013-08-07 21:18:00,74.8,67.5,29.85,SSW,200,9.2,9.2,78,0.00,BKN,,0.00,WeatherDisplay:10.37,2013-08-08 01:18:00,
2013-08-07 21:23:00,74.8,67.5,29.85,SW,220,8.1,8.1,78,0.00,BKN,,0.00,WeatherDisplay:10.37,2013-08-08 01:23:00,
2013-08-07 21:28:00,74.8,67.5,29.85,SW,220,8.1,8.1,78,0.00,BKN,,0.00,WeatherDisplay:10.37,2013-08-08 01:28:00,
2013-08-07 21:33:00,74.7,67.3,29.85,SW,220,8.1,8.1,78,0.00,BKN,,0.00,WeatherDisplay:10.37,2013-08-08 01:33:00,
2013-08-07 21:38:00,74.7,67.0,29.85,SW,220,8.1,8.1,77,0.00,BKN,,0.00,WeatherDisplay:10.37,2013-08-08 01:38:00,
2013-08-07 21:43:00,74.7,67.0,29.85,SW,220,4.6,4.6,77,0.00,SCT,,0.00,WeatherDisplay:10.37,2013-08-08 01:43:00,
2013-08-07 21:48:00,74.5,66.8,29.85,SW,220,4.6,4.6,77,0.00,SCT,,0.00,WeatherDisplay:10.37,2013-08-08 01:48:00,
2013-08-07 21:53:00,74.5,66.8,29.85,SW,220,4.6,4.6,77,0.00,SCT,,0.00,WeatherDisplay:10.37,2013-08-08 01:53:00,
2013-08-07 21:58:00,74.5,66.8,29.85,SW,220,4.6,4.6,77,0.00,SCT,,0.00,WeatherDisplay:10.37,2013-08-08 01:58:00,
2013-08-07 22:03:00,74.5,67.2,29.85,SSW,210,6.9,6.9,78,0.00,SCT,,0.00,WeatherDisplay:10.37,2013-08-08 02:03:00,
2013-08-07 22:08:00,74.3,67.0,29.85,SSW,210,6.9,6.9,78,0.00,SCT,,0.00,WeatherDisplay:10.37,2013-08-08 02:08:00,
2013-08-07 22:13:00,74.3,67.0,29.85,SSW,210,6.9,6.9,78,0.00,SCT,,0.00,WeatherDisplay:10.37,2013-08-08 02:13:00,
2013-08-07 22:18:00,74.1,66.8,29.85,SSW,210,6.9,6.9,78,0.00,SCT,,0.00,WeatherDisplay:10.37,2013-08-08 02:18:00,
2013-08-07 22:23:00,73.9,66.6,29.86,SSW,210,4.6,4.6,78,0.00,-RA,,0.00,WeatherDisplay:10.37,2013-08-08 02:23:00,
2013-08-07 22:28:00,73.9,66.6,29.85,SSW,210,4.6,4.6,78,0.00,-RA,,0.00,WeatherDisplay:10.37,2013-08-08 02:28:00,
2013-08-07 22:33:00,73.8,66.8,29.86,SSW,210,4.6,4.6,79,0.00,-RA,,0.00,WeatherDisplay:10.37,2013-08-08 02:33:00,
2013-08-07 22:38:00,73.8,66.8,29.86,SSW,210,4.6,4.6,79,0.00,-RA,,0.00,WeatherDisplay:10.37,2013-08-08 02:38:00,
2013-08-07 22:43:00,73.8,66.8,29.85,SSW,210,3.5,3.5,79,0.00,OVC,,0.00,WeatherDisplay:10.37,2013-08-08 02:43:00,
2013-08-07 22:48:00,73.8,66.8,29.85,SSW,210,3.5,3.5,79,0.00,OVC,,0.00,WeatherDisplay:10.37,2013-08-08 02:48:00,
2013-08-07 22:53:00,73.6,66.7,29.86,SSW,210,3.5,3.5,79,0.00,OVC,,0.00,WeatherDisplay:10.37,2013-08-08 02:53:00,
2013-08-07 22:58:00,73.2,66.7,29.85,SSW,210,3.5,3.5,80,0.00,OVC,,0.00,WeatherDisplay:10.37,2013-08-08 02:58:00,
2013-08-07 23:03:00,73.2,66.7,29.85,SSW,210,3.5,3.5,80,0.00,OVC,,0.00,WeatherDisplay:10.37,2013-08-08 03:03:00,
2013-08-07 23:08:00,73.2,66.7,29.85,SSW,210,3.5,3.5,80,0.00,OVC,,0.00,WeatherDisplay:10.37,2013-08-08 03:08:00,
2013-08-07 23:13:00,73.2,66.7,29.85,SSW,210,0.0,0.0,80,0.00,BKN,,0.00,WeatherDisplay:10.37,2013-08-08 03:13:00,
2013-08-07 23:18:00,73.2,66.7,29.86,SSW,210,0.0,0.0,80,0.00,BKN,,0.00,WeatherDisplay:10.37,2013-08-08 03:18:00,
2013-08-07 23:23:00,73.2,66.7,29.85,SSW,210,0.0,0.0,80,0.00,BKN,,0.00,WeatherDisplay:10.37,2013-08-08 03:23:00,
2013-08-07 23:28:00,73.2,66.7,29.85,SSW,210,0.0,0.0,80,0.00,BKN,,0.00,WeatherDisplay:10.37,2013-08-08 03:28:00,
2013-08-07 23:33:00,73.2,66.7,29.85,South,170,3.5,3.5,80,0.00,SCT,,0.00,WeatherDisplay:10.37,2013-08-08 03:33:00,
2013-08-07 23:38:00,73.2,66.7,29.85,South,170,3.5,3.5,80,0.00,SCT,,0.00,WeatherDisplay:10.37,2013-08-08 03:38:00,
2013-08-07 23:43:00,73.0,66.5,29.85,South,170,3.5,3.5,80,0.00,SCT,,0.00,WeatherDisplay:10.37,2013-08-08 03:43:00,
2013-08-07 23:48:00,72.9,66.3,29.85,South,170,3.5,3.5,80,0.00,SCT,,0.00,WeatherDisplay:10.37,2013-08-08 03:48:00,
2013-08-07 23:53:00,72.7,66.5,29.85,South,170,3.5,3.5,81,0.00,SCT,,0.00,WeatherDisplay:10.37,2013-08-08 03:53:00,
2013-08-07 23:58:00,72.7,66.5,29.85,South,170,3.5,3.5,81,0.00,SCT,,0.00,WeatherDisplay:10.37,2013-08-08 03:58:00,